Amritsar, India

12:39 AM IST on February 07, 2016 (GMT +0530)
Amritsar

Weather History for VIAR - November, 2012

Change the Weather History Date:

Saturday, November 3, 2012

  Actual Average Record
Temperature  
Mean Temperature 70 °F -  
Max Temperature 86 °F 82 °F 87 °F (1996)
Min Temperature 53 °F 56 °F 50 °F (1996)
Cooling Degree Days 4    
Growing Degree Days 20 (Base 50)    
Moisture  
Dew Point 59 °F    
Average Humidity 67    
Maximum Humidity 100    
Minimum Humidity 28    
Precipitation  
Precipitation 0.00 in - - ()
Sea Level Pressure  
Sea Level Pressure 29.89 in    
Wind  
Wind Speed 1 mph ()    
Max Wind Speed 7 mph    
Max Gust Speed -    
Visibility 1.8 miles    
Events      
Averages and records for this station are not official NWS values.
T = Trace of Precipitation, MM = Missing Value Source: Averaged Metar Reports

Daily Weather History Graph

Daily Weather History Graph

Search for Another Location

Airport or City:

Trip Planner

Search our weather history database for the weather conditions in past years. The results will help you decide how hot, cold, wet, or windy it might be!

Date:

Astronomy

Nov. 03, 2012 Rise Set
Actual Time 6:48 AM IST 5:39 PM IST
Civil Twilight 6:23 AM IST 6:04 PM IST
Nautical Twilight 5:54 AM IST 6:33 PM IST
Astronomical Twilight 5:25 AM IST 7:02 PM IST
Moon 9:01 PM IST (11/3) 10:26 AM IST (11/3)
Length of Visible Light 11h 41m
Length of Day
10h 51m
Waning Gibbous, 83% of the Moon is Illuminated
Nov 3
Waning Gibbous
Nov 7
Last Quarter
Nov 14
New
Nov 20
First Quarter
Nov 28
Full

Hourly Weather History & Observations

Time (IST) Temp. Heat Index Dew Point Humidity Pressure Visibility Wind Dir Wind Speed Gust Speed Precip Events Conditions
12:00 AM 60.8 °F - 59.0 °F 94% 29.89 in 1.2 mi Calm Calm - N/A   Mist
2:30 AM 59.0 °F - 59.0 °F 100% 29.89 in 1.2 mi Calm Calm - N/A   Mist
3:30 AM 59.0 °F - 59.0 °F 100% 29.89 in 1.2 mi Calm Calm - N/A   Mist
5:30 AM 55 °F - 55 °F 100% 29.87 in 1 mi Calm Calm - -   Mist
6:30 AM 55.4 °F - 55.4 °F 100% 29.89 in 0.9 mi Calm Calm - N/A   Mist
8:30 AM 60 °F - 58 °F 90% 29.93 in 1 mi Calm Calm - -   Mist
8:30 AM 59.0 °F - 57.2 °F 94% 29.92 in 0.7 mi Calm Calm - N/A   Mist
9:00 AM 60.8 °F - 59.0 °F 94% 29.92 in 0.9 mi Variable 2.3 mph - N/A   Mist
10:00 AM 68.0 °F - 60.8 °F 78% 29.95 in 1.6 mi WSW 3.5 mph - N/A   Mist
11:30 AM 76 °F - 57 °F 42% 29.93 in 2 mi Calm Calm - -   Haze
12:00 PM 78.8 °F - 57.2 °F 47% 29.95 in 2.8 mi West 4.6 mph - N/A   Haze
12:30 PM 80.6 °F 80.5 °F 55.4 °F 42% 29.92 in 3.1 mi West 5.8 mph - N/A   Smoke
1:00 PM 80.6 °F 80.5 °F 55.4 °F 42% 29.92 in 3.1 mi West 6.9 mph - N/A   Smoke
1:30 PM 84.2 °F 83.5 °F 57.2 °F 40% 29.89 in 3.1 mi WSW 4.6 mph - N/A   Smoke
2:30 PM 85 °F - 57 °F 28% 29.84 in 1 mi West 4.6 mph - -   Smoke
2:30 PM 84.2 °F 83.5 °F 57.2 °F 40% 29.89 in 3.1 mi West 4.6 mph - N/A   Smoke
3:30 PM 84.2 °F 83.5 °F 57.2 °F 40% 29.86 in 2.5 mi West 4.6 mph - N/A   Smoke
4:30 PM 80.6 °F 81.1 °F 59.0 °F 48% 29.86 in 2.5 mi Variable 2.3 mph - N/A   Smoke
5:00 PM 80.6 °F 81.1 °F 59.0 °F 48% 29.86 in 2.5 mi Variable 2.3 mph - N/A   Smoke
5:30 PM 80 °F - 60 °F 40% 29.83 in 2 mi 2.3 mph - -   Smoke
6:30 PM 78.8 °F - 60.8 °F 54% 29.86 in 2.5 mi Calm Calm - N/A   Haze
7:30 PM 75.2 °F - 66.2 °F 73% 29.89 in 2.2 mi Calm Calm - N/A   Haze
8:30 PM 72 °F - 67 °F 78% 29.88 in 1 mi Calm Calm - -   Mist
10:30 PM 69.8 °F - 64.4 °F 83% 29.92 in 1.6 mi Calm Calm - N/A   Haze
11:30 PM 65 °F - 63 °F 89% 29.91 in 1 mi Calm Calm - -   Mist